This demonstration page uses our WeatherBlox Daily Observations layout. Learn more.

Left ArrowRight Arrow

Hourly Observations for September 27, 2022

Temp ( °F °C ) Dew Point ( °F °C ) Humidity (%) Winds ( mph kmh ) Pressure ( in mb ) Visibility ( mi km ) Precip ( " mm )
12:55 am 00:55 Clear 54 12.1 43 6.2 67 67 Calm 30.13 1020 10 16 0.00 0.00
1:55 am 01:55 Clear 53 11.7 44 6.4 70 70 E 1 2 30.14 1021 10 16 0.00 0.00
2:55 am 02:55 Clear 51 10.6 43 6 73 73 Calm 30.14 1021 10 16 0.00 0.00
3:55 am 03:55 Clear 50 10 43 6.3 78 78 Calm 30.13 1020 10 16 0.00 0.00
4:55 am 04:55 Clear 50 10.1 43 6.2 77 77 Calm 30.14 1021 10 16 0.00 0.00
5:55 am 05:55 Clear 49 9.2 43 5.9 80 80 Calm 30.16 1021 10 16 0.00 0.00
6:55 am 06:55 Clear 47 8.1 43 6.1 87 87 undefined N/A 30.17 1022 10 16 0.00 0.00
7:55 am 07:55 Sunny 49 9.6 44 6.9 83 83 Calm 30.18 1022 10 16 0.00 0.00
8:55 am 08:55 undefined 56 13.3 41 5.2 58 58 Calm 30.19 1022 10 16 0.00 0.00
9:55 am 09:55 Sunny 64 18 43 6 45 45 SSW 3 6 30.16 1021 10 16 0.00 0.00
10:55 am 10:55 Sunny 72 22 41 5 33 33 VRB 3 6 30.16 1022 10 16 0.00 0.00
11:55 am 11:55 Sunny 73 23 37 3 27 27 SE 5 7 30.20 1023 10 16 0.00 0.00
12:55 pm 12:55 Sunny 77 24.8 37 2.8 24 24 Calm 30.20 1023 10 16 0.00 0.00
1:55 pm 13:55 Sunny 79 26.1 36 2.1 21 21 NNE 6 9 30.19 1022 10 16 0.00 0.00
2:55 pm 14:55 Sunny 79 26.2 36 2.1 21 21 N 8 13 30.18 1022 10 16 0.00 0.00
3:55 pm 15:55 Sunny 80 26.4 36 2.3 21 21 NNE 6 9 30.18 1022 10 16 0.00 0.00
4:55 pm 16:55 Sunny 79 26.1 36 2.1 21 21 N 8 13 30.18 1022 10 16 0.00 0.00
5:55 pm 17:55 Sunny 76 24.5 39 3.7 26 26 NE 8 13 30.21 1023 10 16 0.00 0.00
6:55 pm 18:55 Sunny 72 22.1 39 3.7 30 30 ENE 6 9 30.23 1024 10 16 0.00 0.00
7:55 pm 19:55 Clear 67 19.6 39 4.1 36 36 NE 5 7 30.25 1024 10 16 0.00 0.00
8:55 pm 20:55 Clear 64 17.7 40 4.3 41 41 ENE 6 9 30.25 1024 10 16 0.00 0.00
9:55 pm 21:55 Clear 61 16 40 4.4 46 46 ENE 6 9 30.29 1026 10 16 0.00 0.00
10:55 pm 22:55 Clear 60 15.6 38 3.4 44 44 ENE 9 15 30.33 1027 10 16 0.00 0.00
11:55 pm 23:55 Clear 58 14.4 33 0.6 39 39 E 7 11 30.35 1028 10 16 0.00 0.00

Powered by AerisWeather